Time,TemperatureF,DewpointF,PressureIn,WindDirection,WindDirectionDegrees,WindSpeedMPH,WindSpeedGustMPH,Humidity,HourlyPrecipIn,Conditions,Clouds,dailyrainin,SoftwareType,DateUTC
2013-02-22 00:02:00,23.7,16.7,21.93,SE,135,5.0,11.0,74,0.00,,,0.00,meteohub,2013-02-22 06:02:00,
2013-02-22 00:07:00,23.7,16.7,21.93,SE,135,5.0,11.0,74,0.00,,,0.00,meteohub,2013-02-22 06:07:00,
2013-02-22 00:12:00,23.7,16.3,21.94,SW,225,5.0,11.0,73,0.00,,,0.00,meteohub,2013-02-22 06:12:00,
2013-02-22 00:17:00,23.7,16.3,21.93,SE,135,8.0,9.0,73,0.00,,,0.00,meteohub,2013-02-22 06:17:00,
2013-02-22 00:22:00,23.7,16.3,21.93,SSE,158,6.0,9.0,73,0.00,,,0.00,meteohub,2013-02-22 06:22:00,
2013-02-22 00:27:00,23.7,16.0,21.93,South,180,3.0,8.0,72,0.00,,,0.00,meteohub,2013-02-22 06:27:00,
2013-02-22 00:32:00,23.7,16.0,21.93,South,180,4.0,9.0,72,0.00,,,0.00,meteohub,2013-02-22 06:32:00,
2013-02-22 00:37:00,23.7,16.0,21.94,SE,135,8.0,9.0,72,0.00,,,0.00,meteohub,2013-02-22 06:37:00,
2013-02-22 00:42:00,23.7,16.0,21.94,SE,135,4.0,8.0,72,0.00,,,0.00,meteohub,2013-02-22 06:42:00,
2013-02-22 00:47:00,23.7,16.0,21.95,SW,225,5.0,8.0,72,0.00,,,0.00,meteohub,2013-02-22 06:47:00,
2013-02-22 00:52:00,23.5,16.2,21.95,SE,135,6.0,8.0,73,0.00,,,0.00,meteohub,2013-02-22 06:52:00,
2013-02-22 00:57:00,23.4,16.3,21.96,SE,135,8.0,11.0,74,0.00,,,0.00,meteohub,2013-02-22 06:57:00,
2013-02-22 01:02:00,23.2,16.5,21.96,SE,135,8.0,12.0,75,0.00,,,0.00,meteohub,2013-02-22 07:02:00,
2013-02-22 01:06:00,23.2,16.7,21.96,SE,135,7.0,12.0,76,0.00,,,0.00,meteohub,2013-02-22 07:06:00,
2013-02-22 01:12:00,23.0,16.9,21.96,SE,135,11.0,11.0,77,0.00,,,0.00,meteohub,2013-02-22 07:12:00,
2013-02-22 01:17:00,22.8,17.2,21.97,East,90,11.0,11.0,79,0.00,,,0.00,meteohub,2013-02-22 07:17:00,
2013-02-22 01:22:00,22.6,17.4,21.97,SW,225,6.0,11.0,80,0.00,,,0.00,meteohub,2013-02-22 07:22:00,
2013-02-22 01:27:00,22.6,17.8,21.97,SW,225,6.0,11.0,81,0.00,,,0.00,meteohub,2013-02-22 07:27:00,
2013-02-22 01:32:00,22.5,17.6,21.97,South,180,6.0,11.0,81,0.00,,,0.00,meteohub,2013-02-22 07:32:00,
2013-02-22 01:37:00,22.5,17.6,21.98,SW,225,6.0,8.0,81,0.00,,,0.00,meteohub,2013-02-22 07:37:00,
2013-02-22 01:42:00,22.5,17.6,21.98,SW,225,4.0,8.0,81,0.00,,,0.00,meteohub,2013-02-22 07:42:00,
2013-02-22 01:47:00,22.3,17.4,21.99,SE,135,11.0,11.0,81,0.00,,,0.00,meteohub,2013-02-22 07:47:00,
2013-02-22 01:52:00,22.3,17.6,21.99,South,180,4.0,11.0,82,0.00,,,0.00,meteohub,2013-02-22 07:52:00,
2013-02-22 01:57:00,22.3,17.6,21.99,South,180,6.0,11.0,82,0.00,,,0.00,meteohub,2013-02-22 07:57:00,
2013-02-22 02:02:00,22.3,17.6,22.01,SE,135,10.0,11.0,82,0.00,,,0.00,meteohub,2013-02-22 08:02:00,
2013-02-22 02:07:00,22.3,17.6,22.02,SE,135,10.0,11.0,82,0.00,,,0.00,meteohub,2013-02-22 08:07:00,
2013-02-22 02:12:00,22.1,17.4,22.03,SE,135,9.0,10.0,82,0.00,,,0.00,meteohub,2013-02-22 08:12:00,
2013-02-22 02:17:00,22.1,17.4,22.03,SE,135,13.0,13.0,82,0.00,,,0.00,meteohub,2013-02-22 08:17:00,
2013-02-22 02:22:00,22.1,17.4,22.03,SE,135,10.0,13.0,82,0.00,,,0.00,meteohub,2013-02-22 08:22:00,
2013-02-22 02:27:00,22.1,17.4,22.03,SE,135,5.0,13.0,82,0.00,,,0.00,meteohub,2013-02-22 08:27:00,
2013-02-22 02:32:00,22.1,17.4,22.04,SE,135,11.0,13.0,82,0.00,,,0.00,meteohub,2013-02-22 08:32:00,
2013-02-22 02:37:00,22.1,17.4,22.05,SE,135,5.0,12.0,82,0.00,,,0.00,meteohub,2013-02-22 08:37:00,
2013-02-22 02:42:00,22.1,17.4,22.06,SE,135,13.0,15.0,82,0.00,,,0.00,meteohub,2013-02-22 08:42:00,
2013-02-22 02:47:00,21.9,17.6,22.06,SE,135,6.0,15.0,83,0.00,,,0.00,meteohub,2013-02-22 08:47:00,
2013-02-22 02:52:00,21.9,17.6,22.04,SE,135,4.0,15.0,83,0.00,,,0.00,meteohub,2013-02-22 08:52:00,
2013-02-22 02:57:00,21.9,17.6,22.04,South,180,5.0,15.0,83,0.00,,,0.00,meteohub,2013-02-22 08:57:00,
2013-02-22 03:02:00,21.9,17.6,22.05,SE,135,5.0,13.0,83,0.00,,,0.00,meteohub,2013-02-22 09:02:00,
2013-02-22 03:07:00,21.9,17.6,22.05,SE,135,7.0,8.0,83,0.00,,,0.00,meteohub,2013-02-22 09:07:00,
2013-02-22 03:12:00,21.9,17.6,22.05,South,180,6.0,7.0,83,0.00,,,0.00,meteohub,2013-02-22 09:12:00,
2013-02-22 03:17:00,21.7,17.4,22.06,ESE,113,6.0,8.0,83,0.00,,,0.00,meteohub,2013-02-22 09:17:00,
2013-02-22 03:22:00,21.7,17.4,22.05,SSE,158,5.0,8.0,83,0.00,,,0.00,meteohub,2013-02-22 09:22:00,
2013-02-22 03:27:00,21.7,17.4,22.06,SW,225,4.0,12.0,83,0.00,,,0.00,meteohub,2013-02-22 09:27:00,
2013-02-22 03:32:00,21.7,17.4,22.05,West,270,4.0,12.0,83,0.00,,,0.00,meteohub,2013-02-22 09:32:00,
2013-02-22 03:37:00,21.7,17.4,22.05,SW,225,4.0,8.0,83,0.00,,,0.00,meteohub,2013-02-22 09:37:00,
2013-02-22 03:42:00,21.7,17.4,22.06,SE,135,5.0,8.0,83,0.00,,,0.00,meteohub,2013-02-22 09:42:00,
2013-02-22 03:47:00,21.7,17.4,22.06,SE,135,4.0,8.0,83,0.00,,,0.00,meteohub,2013-02-22 09:47:00,
2013-02-22 03:52:00,21.7,17.4,22.06,SE,135,7.0,7.0,83,0.00,,,0.00,meteohub,2013-02-22 09:52:00,
2013-02-22 03:57:00,21.7,17.4,22.06,SE,135,4.0,8.0,83,0.00,,,0.00,meteohub,2013-02-22 09:57:00,
2013-02-22 04:02:00,21.7,17.4,22.06,South,180,5.0,8.0,83,0.00,,,0.00,meteohub,2013-02-22 10:02:00,
2013-02-22 04:07:00,21.7,17.4,22.06,South,180,5.0,7.0,83,0.00,,,0.00,meteohub,2013-02-22 10:07:00,
2013-02-22 04:11:00,21.6,17.2,22.07,SW,225,4.0,6.0,83,0.00,,,0.00,meteohub,2013-02-22 10:11:00,
2013-02-22 04:17:00,21.6,17.2,22.07,South,180,5.0,8.0,83,0.00,,,0.00,meteohub,2013-02-22 10:17:00,
2013-02-22 04:22:00,21.6,17.2,22.07,SSW,203,4.0,8.0,83,0.00,,,0.00,meteohub,2013-02-22 10:22:00,
2013-02-22 04:27:00,21.6,17.2,22.07,South,180,3.0,9.0,83,0.00,,,0.00,meteohub,2013-02-22 10:27:00,
2013-02-22 04:32:00,21.6,17.2,22.07,East,90,8.0,9.0,83,0.00,,,0.00,meteohub,2013-02-22 10:32:00,
2013-02-22 04:37:00,21.4,17.1,22.08,SW,225,8.0,9.0,83,0.00,,,0.00,meteohub,2013-02-22 10:37:00,
2013-02-22 04:42:00,21.4,17.1,22.08,SE,135,6.0,8.0,83,0.00,,,0.00,meteohub,2013-02-22 10:42:00,
2013-02-22 04:47:00,21.4,17.1,22.08,SE,135,5.0,8.0,83,0.00,,,0.00,meteohub,2013-02-22 10:47:00,
2013-02-22 04:52:00,21.4,17.1,22.09,NW,315,5.0,8.0,83,0.00,,,0.00,meteohub,2013-02-22 10:52:00,
2013-02-22 04:57:00,21.4,17.1,22.08,SE,135,4.0,7.0,83,0.00,,,0.00,meteohub,2013-02-22 10:57:00,
2013-02-22 05:02:00,21.4,17.1,22.09,SE,135,3.0,7.0,83,0.00,,,0.00,meteohub,2013-02-22 11:02:00,
2013-02-22 05:07:00,21.4,17.1,22.09,SE,135,4.0,7.0,83,0.00,,,0.00,meteohub,2013-02-22 11:07:00,
2013-02-22 05:12:00,21.4,17.1,22.09,SE,135,2.0,8.0,83,0.00,,,0.00,meteohub,2013-02-22 11:12:00,
2013-02-22 05:17:00,21.4,17.1,22.09,SE,135,5.0,8.0,83,0.00,,,0.00,meteohub,2013-02-22 11:17:00,
2013-02-22 05:22:00,21.4,17.1,22.09,SE,135,9.0,9.0,83,0.00,,,0.00,meteohub,2013-02-22 11:22:00,
2013-02-22 05:27:00,21.4,17.1,22.09,South,180,4.0,9.0,83,0.00,,,0.00,meteohub,2013-02-22 11:27:00,
2013-02-22 05:32:00,21.4,17.1,22.09,SE,135,3.0,9.0,83,0.00,,,0.00,meteohub,2013-02-22 11:32:00,
2013-02-22 05:36:00,21.4,17.1,22.09,South,180,6.0,9.0,83,0.00,,,0.00,meteohub,2013-02-22 11:36:00,
2013-02-22 05:42:00,21.4,17.1,22.10,SE,135,4.0,7.0,83,0.00,,,0.00,meteohub,2013-02-22 11:42:00,
2013-02-22 05:47:00,21.2,16.9,22.10,South,180,3.0,8.0,83,0.00,,,0.00,meteohub,2013-02-22 11:47:00,
2013-02-22 05:52:00,21.2,16.9,22.11,South,180,5.0,8.0,83,0.00,,,0.00,meteohub,2013-02-22 11:52:00,
2013-02-22 05:57:00,21.2,16.9,22.11,SE,135,4.0,8.0,83,0.00,,,0.00,meteohub,2013-02-22 11:57:00,
2013-02-22 06:02:00,21.2,16.9,22.11,SE,135,4.0,6.0,83,0.00,,,0.00,meteohub,2013-02-22 12:02:00,
2013-02-22 06:07:00,21.2,16.9,22.11,SE,135,4.0,6.0,83,0.00,,,0.00,meteohub,2013-02-22 12:07:00,
2013-02-22 06:12:00,21.2,16.9,22.11,South,180,4.0,6.0,83,0.00,,,0.00,meteohub,2013-02-22 12:12:00,
2013-02-22 06:17:00,21.4,17.1,22.11,South,180,5.0,6.0,83,0.00,,,0.00,meteohub,2013-02-22 12:17:00,
2013-02-22 06:22:00,21.4,17.1,22.11,South,180,4.0,8.0,83,0.00,,,0.00,meteohub,2013-02-22 12:22:00,
2013-02-22 06:27:00,21.4,17.1,22.11,SSE,158,2.0,8.0,83,0.00,,,0.00,meteohub,2013-02-22 12:27:00,
2013-02-22 06:32:00,21.4,17.1,22.12,South,180,6.0,8.0,83,0.00,,,0.00,meteohub,2013-02-22 12:32:00,
2013-02-22 06:37:00,21.4,17.1,22.12,SE,135,5.0,6.0,83,0.00,,,0.00,meteohub,2013-02-22 12:37:00,
2013-02-22 06:42:00,21.4,17.1,22.12,SE,135,4.0,6.0,83,0.00,,,0.00,meteohub,2013-02-22 12:42:00,
2013-02-22 06:47:00,21.4,17.1,22.12,SE,135,4.0,6.0,83,0.00,,,0.00,meteohub,2013-02-22 12:47:00,
2013-02-22 06:52:00,21.6,17.2,22.12,South,180,4.0,6.0,83,0.00,,,0.00,meteohub,2013-02-22 12:52:00,
2013-02-22 06:57:00,21.6,17.2,22.12,South,180,4.0,5.0,83,0.00,,,0.00,meteohub,2013-02-22 12:57:00,
2013-02-22 07:02:00,21.6,17.2,22.12,South,180,4.0,5.0,83,0.00,,,0.00,meteohub,2013-02-22 13:02:00,
2013-02-22 07:07:00,21.7,17.4,22.12,SE,135,3.0,5.0,83,0.00,,,0.00,meteohub,2013-02-22 13:07:00,
2013-02-22 07:12:00,21.7,17.4,22.12,SE,135,6.0,7.0,83,0.00,,,0.00,meteohub,2013-02-22 13:12:00,
2013-02-22 07:17:00,21.9,17.6,22.12,South,180,4.0,7.0,83,0.00,,,0.00,meteohub,2013-02-22 13:17:00,
2013-02-22 07:22:00,21.9,17.6,22.12,SE,135,5.0,7.0,83,0.00,,,0.00,meteohub,2013-02-22 13:22:00,
2013-02-22 07:27:00,22.1,17.8,22.12,SE,135,3.0,6.0,83,0.00,,,0.00,meteohub,2013-02-22 13:27:00,
2013-02-22 07:32:00,22.1,17.8,22.12,SSE,158,4.0,5.0,83,0.00,,,0.00,meteohub,2013-02-22 13:32:00,
2013-02-22 07:37:00,22.1,17.8,22.12,South,180,4.0,6.0,83,0.00,,,0.00,meteohub,2013-02-22 13:37:00,
2013-02-22 07:42:00,22.3,18.0,22.13,SE,135,4.0,7.0,83,0.00,,,0.00,meteohub,2013-02-22 13:42:00,
2013-02-22 07:47:00,22.3,18.0,22.13,South,180,5.0,7.0,83,0.00,,,0.00,meteohub,2013-02-22 13:47:00,
2013-02-22 07:52:00,22.5,18.1,22.14,South,180,5.0,9.0,83,0.00,,,0.00,meteohub,2013-02-22 13:52:00,
2013-02-22 07:57:00,22.5,18.1,22.14,SE,135,5.0,9.0,83,0.00,,,0.00,meteohub,2013-02-22 13:57:00,
2013-02-22 08:02:00,22.5,18.1,22.14,SE,135,9.0,9.0,83,0.00,,,0.00,meteohub,2013-02-22 14:02:00,
2013-02-22 08:07:00,22.5,18.1,22.14,SE,135,9.0,9.0,83,0.00,,,0.00,meteohub,2013-02-22 14:07:00,
2013-02-22 08:12:00,22.8,18.5,22.14,SE,135,8.0,9.0,83,0.00,,,0.00,meteohub,2013-02-22 14:12:00,
2013-02-22 08:17:00,23.0,18.3,22.14,SE,135,5.0,9.0,82,0.00,,,0.00,meteohub,2013-02-22 14:17:00,
2013-02-22 08:22:00,23.0,18.3,22.14,SE,135,5.0,9.0,82,0.00,,,0.00,meteohub,2013-02-22 14:22:00,
2013-02-22 08:27:00,23.2,18.5,22.15,SE,135,4.0,8.0,82,0.00,,,0.00,meteohub,2013-02-22 14:27:00,
2013-02-22 08:32:00,23.4,18.7,22.15,SE,135,4.0,8.0,82,0.00,,,0.00,meteohub,2013-02-22 14:32:00,
2013-02-22 08:37:00,23.4,18.7,22.15,SE,135,4.0,8.0,82,0.00,,,0.00,meteohub,2013-02-22 14:37:00,
2013-02-22 08:42:00,23.5,18.9,22.15,SE,135,8.0,8.0,82,0.00,,,0.00,meteohub,2013-02-22 14:42:00,
2013-02-22 08:47:00,23.7,19.0,22.15,SE,135,6.0,8.0,82,0.00,,,0.00,meteohub,2013-02-22 14:47:00,
2013-02-22 08:52:00,23.9,19.2,22.15,SE,135,4.0,8.0,82,0.00,,,0.00,meteohub,2013-02-22 14:52:00,
2013-02-22 08:57:00,23.9,19.2,22.15,South,180,4.0,8.0,82,0.00,,,0.00,meteohub,2013-02-22 14:57:00,
2013-02-22 09:02:00,24.1,19.4,22.15,South,180,3.0,7.0,82,0.00,,,0.00,meteohub,2013-02-22 15:02:00,
2013-02-22 09:07:00,24.3,19.8,22.15,SE,135,4.0,5.0,83,0.00,,,0.00,meteohub,2013-02-22 15:07:00,
2013-02-22 09:12:00,24.3,19.8,22.15,SE,135,6.0,8.0,83,0.00,,,0.00,meteohub,2013-02-22 15:12:00,
2013-02-22 09:17:00,24.4,19.9,22.15,SE,135,4.0,8.0,83,0.00,,,0.00,meteohub,2013-02-22 15:17:00,
2013-02-22 09:22:00,24.6,20.1,22.15,SE,135,3.0,8.0,83,0.00,,,0.00,meteohub,2013-02-22 15:22:00,
2013-02-22 09:27:00,24.8,20.1,22.15,South,180,2.0,7.0,82,0.00,,,0.00,meteohub,2013-02-22 15:27:00,
2013-02-22 09:32:00,25.0,20.3,22.15,SE,135,4.0,4.0,82,0.00,,,0.00,meteohub,2013-02-22 15:32:00,
2013-02-22 09:37:00,25.0,20.3,22.15,SE,135,4.0,4.0,82,0.00,,,0.00,meteohub,2013-02-22 15:37:00,
2013-02-22 09:42:00,25.0,20.3,22.15,South,180,7.0,7.0,82,0.00,,,0.00,meteohub,2013-02-22 15:42:00,
2013-02-22 09:47:00,25.0,20.3,22.16,SE,135,8.0,8.0,82,0.00,,,0.00,meteohub,2013-02-22 15:47:00,
2013-02-22 09:51:00,25.2,20.5,22.16,SE,135,3.0,8.0,82,0.00,,,0.00,meteohub,2013-02-22 15:51:00,
2013-02-22 09:56:00,25.3,20.7,22.16,East,90,5.0,8.0,82,0.00,,,0.00,meteohub,2013-02-22 15:56:00,
2013-02-22 10:02:00,25.5,20.8,22.16,SE,135,4.0,8.0,82,0.00,,,0.00,meteohub,2013-02-22 16:02:00,
2013-02-22 10:07:00,25.5,20.8,22.16,SE,135,4.0,7.0,82,0.00,,,0.00,meteohub,2013-02-22 16:07:00,
2013-02-22 10:12:00,26.4,21.7,22.16,SE,135,4.0,5.0,82,0.00,,,0.00,meteohub,2013-02-22 16:12:00,
2013-02-22 10:17:00,26.4,21.7,22.16,SE,135,3.0,4.0,82,0.00,,,0.00,meteohub,2013-02-22 16:17:00,
2013-02-22 10:22:00,26.6,21.6,22.16,South,180,2.0,5.0,81,0.00,,,0.00,meteohub,2013-02-22 16:22:00,
2013-02-22 10:27:00,27.0,21.9,22.16,SE,135,4.0,5.0,81,0.00,,,0.00,meteohub,2013-02-22 16:27:00,
2013-02-22 10:32:00,27.0,21.9,22.16,SE,135,4.0,5.0,81,0.00,,,0.00,meteohub,2013-02-22 16:32:00,
2013-02-22 10:37:00,27.0,21.9,22.17,SE,135,3.0,5.0,81,0.00,,,0.00,meteohub,2013-02-22 16:37:00,
2013-02-22 10:42:00,27.3,22.3,22.16,South,180,2.0,7.0,81,0.00,,,0.00,meteohub,2013-02-22 16:42:00,
2013-02-22 10:47:00,27.9,23.0,22.16,South,180,4.0,7.0,82,0.00,,,0.00,meteohub,2013-02-22 16:47:00,
2013-02-22 10:52:00,28.0,23.0,22.16,SE,135,5.0,7.0,81,0.00,,,0.00,meteohub,2013-02-22 16:52:00,
2013-02-22 10:57:00,27.9,22.8,22.17,SE,135,4.0,5.0,81,0.00,,,0.00,meteohub,2013-02-22 16:57:00,
2013-02-22 11:02:00,28.0,23.0,22.16,SE,135,4.0,5.0,81,0.00,,,0.00,meteohub,2013-02-22 17:02:00,
2013-02-22 11:07:00,28.0,23.0,22.16,SE,135,4.0,6.0,81,0.00,,,0.00,meteohub,2013-02-22 17:07:00,
2013-02-22 11:12:00,28.0,23.0,22.17,SSE,158,2.0,6.0,81,0.00,,,0.00,meteohub,2013-02-22 17:12:00,
2013-02-22 11:17:00,28.6,24.6,22.17,SE,135,4.0,6.0,85,0.00,,,0.00,meteohub,2013-02-22 17:17:00,
2013-02-22 11:22:00,28.8,24.8,22.17,South,180,4.0,4.0,85,0.00,,,0.00,meteohub,2013-02-22 17:22:00,
2013-02-22 11:27:00,29.1,25.2,22.17,SSE,158,3.0,4.0,85,0.00,,,0.00,meteohub,2013-02-22 17:27:00,
2013-02-22 11:32:00,29.7,25.7,22.17,SE,135,2.0,4.0,85,0.00,,,0.00,meteohub,2013-02-22 17:32:00,
2013-02-22 11:37:00,29.8,25.9,22.17,SE,135,2.0,4.0,85,0.00,,,0.00,meteohub,2013-02-22 17:37:00,
2013-02-22 11:42:00,30.4,26.1,22.17,SE,135,3.0,4.0,84,0.00,,,0.00,meteohub,2013-02-22 17:42:00,
2013-02-22 11:47:00,30.6,26.2,22.17,SE,135,3.0,4.0,84,0.00,,,0.00,meteohub,2013-02-22 17:47:00,
2013-02-22 11:52:00,30.6,26.2,22.17,SE,135,2.0,4.0,84,0.00,,,0.00,meteohub,2013-02-22 17:52:00,
2013-02-22 11:57:00,30.6,26.2,22.17,SE,135,3.0,3.0,84,0.00,,,0.00,meteohub,2013-02-22 17:57:00,
2013-02-22 12:02:00,30.9,26.6,22.18,SE,135,2.0,3.0,84,0.00,,,0.00,meteohub,2013-02-22 18:02:00,
2013-02-22 12:07:00,30.9,26.6,22.18,SE,135,2.0,3.0,84,0.00,,,0.00,meteohub,2013-02-22 18:07:00,
2013-02-22 12:12:00,31.1,26.8,22.18,SE,135,2.0,3.0,84,0.00,,,0.00,meteohub,2013-02-22 18:12:00,
2013-02-22 12:17:00,31.3,27.0,22.19,South,180,3.0,3.0,84,0.00,,,0.00,meteohub,2013-02-22 18:17:00,
2013-02-22 12:22:00,31.1,26.8,22.19,South,180,2.0,3.0,84,0.00,,,0.00,meteohub,2013-02-22 18:22:00,
2013-02-22 12:27:00,30.6,26.2,22.19,SE,135,3.0,3.0,84,0.00,,,0.00,meteohub,2013-02-22 18:27:00,
2013-02-22 12:32:00,30.6,26.1,22.19,SE,135,2.0,4.0,83,0.00,,,0.00,meteohub,2013-02-22 18:32:00,
2013-02-22 12:36:00,31.1,26.8,22.20,SE,135,3.0,4.0,84,0.00,,,0.00,meteohub,2013-02-22 18:36:00,
2013-02-22 12:41:00,31.5,27.1,22.20,SSE,158,2.0,4.0,84,0.00,,,0.00,meteohub,2013-02-22 18:41:00,
2013-02-22 12:46:00,31.6,27.3,22.20,SE,135,2.0,3.0,84,0.00,,,0.00,meteohub,2013-02-22 18:46:00,
2013-02-22 12:51:00,31.5,27.1,22.20,West,270,2.0,3.0,84,0.00,,,0.00,meteohub,2013-02-22 18:51:00,
2013-02-22 12:56:00,31.5,27.1,22.21,SSE,158,3.0,4.0,84,0.00,,,0.00,meteohub,2013-02-22 18:56:00,
2013-02-22 13:01:00,31.6,27.3,22.21,SSW,203,2.0,4.0,84,0.00,,,0.00,meteohub,2013-02-22 19:01:00,
2013-02-22 13:06:00,32.0,27.5,22.21,SE,135,2.0,4.0,83,0.00,,,0.00,meteohub,2013-02-22 19:06:00,
2013-02-22 13:11:00,32.5,28.0,22.21,SE,135,2.0,3.0,83,0.00,,,0.00,meteohub,2013-02-22 19:11:00,
2013-02-22 13:16:00,32.9,28.2,22.21,South,180,3.0,3.0,83,0.00,,,0.00,meteohub,2013-02-22 19:16:00,
2013-02-22 13:21:00,33.1,28.4,22.21,SE,135,0.0,3.0,83,0.00,,,0.00,meteohub,2013-02-22 19:21:00,
2013-02-22 13:26:00,33.3,28.6,22.22,SE,135,3.0,3.0,83,0.00,,,0.00,meteohub,2013-02-22 19:26:00,
2013-02-22 13:32:00,32.7,28.2,22.22,South,180,2.0,3.0,83,0.00,,,0.00,meteohub,2013-02-22 19:32:00,
2013-02-22 13:37:00,32.9,28.2,22.21,SW,225,2.0,3.0,83,0.00,,,0.00,meteohub,2013-02-22 19:37:00,
2013-02-22 13:42:00,32.9,28.2,22.22,SE,135,4.0,4.0,83,0.00,,,0.00,meteohub,2013-02-22 19:42:00,
2013-02-22 13:47:00,32.7,28.2,22.21,SE,135,1.0,4.0,83,0.00,,,0.00,meteohub,2013-02-22 19:47:00,
2013-02-22 13:52:00,32.7,28.2,22.21,SW,225,1.0,4.0,83,0.00,,,0.00,meteohub,2013-02-22 19:52:00,
2013-02-22 13:57:00,32.7,28.2,22.21,West,270,1.0,4.0,83,0.00,,,0.00,meteohub,2013-02-22 19:57:00,
2013-02-22 14:02:00,32.7,28.2,22.21,East,90,1.0,3.0,83,0.00,,,0.00,meteohub,2013-02-22 20:02:00,
2013-02-22 14:07:00,32.7,28.2,22.21,East,90,1.0,3.0,83,0.00,,,0.00,meteohub,2013-02-22 20:07:00,
2013-02-22 14:12:00,32.7,28.2,22.21,East,90,0.0,2.0,83,0.00,,,0.00,meteohub,2013-02-22 20:12:00,
2013-02-22 14:17:00,32.9,28.0,22.21,North,0,0.0,2.0,82,0.00,,,0.00,meteohub,2013-02-22 20:17:00,
2013-02-22 14:22:00,32.9,28.0,22.20,SE,135,0.0,2.0,82,0.00,,,0.00,meteohub,2013-02-22 20:22:00,
2013-02-22 14:27:00,33.4,28.6,22.21,SE,135,1.0,2.0,82,0.00,,,0.00,meteohub,2013-02-22 20:27:00,
2013-02-22 14:32:00,33.3,28.4,22.21,SE,135,2.0,2.0,82,0.00,,,0.00,meteohub,2013-02-22 20:32:00,
2013-02-22 14:37:00,32.9,27.7,22.20,SE,135,1.0,2.0,81,0.00,,,0.00,meteohub,2013-02-22 20:37:00,
2013-02-22 14:42:00,33.3,28.4,22.21,SE,135,0.0,2.0,82,0.00,,,0.00,meteohub,2013-02-22 20:42:00,
2013-02-22 14:47:00,33.6,28.8,22.21,East,90,0.0,2.0,82,0.00,,,0.00,meteohub,2013-02-22 20:47:00,
2013-02-22 14:52:00,33.1,27.9,22.21,East,90,0.0,2.0,81,0.00,,,0.00,meteohub,2013-02-22 20:52:00,
2013-02-22 14:57:00,32.7,27.3,22.21,NE,45,3.0,3.0,80,0.00,,,0.00,meteohub,2013-02-22 20:57:00,
2013-02-22 15:02:00,31.8,25.2,22.21,NW,315,2.0,4.0,76,0.00,,,0.00,meteohub,2013-02-22 21:02:00,
2013-02-22 15:07:00,31.6,24.3,22.21,NE,45,4.0,4.0,74,0.00,,,0.00,meteohub,2013-02-22 21:07:00,
2013-02-22 15:12:00,31.6,23.9,22.20,North,0,2.0,4.0,73,0.00,,,0.00,meteohub,2013-02-22 21:12:00,
2013-02-22 15:17:00,31.5,23.5,22.20,NE,45,3.0,4.0,72,0.00,,,0.00,meteohub,2013-02-22 21:17:00,
2013-02-22 15:22:00,31.5,23.9,22.20,NW,315,2.0,4.0,73,0.00,,,0.00,meteohub,2013-02-22 21:22:00,
2013-02-22 15:27:00,31.3,23.4,22.20,West,270,3.0,3.0,72,0.00,,,0.00,meteohub,2013-02-22 21:27:00,
2013-02-22 15:32:00,30.6,22.6,22.20,NW,315,4.0,4.0,72,0.01,,,0.01,meteohub,2013-02-22 21:32:00,
2013-02-22 15:37:00,30.2,21.9,22.20,North,0,3.0,4.0,71,0.01,,,0.01,meteohub,2013-02-22 21:37:00,
2013-02-22 15:42:00,30.0,22.1,22.20,NW,315,4.0,5.0,72,0.01,,,0.01,meteohub,2013-02-22 21:42:00,
2013-02-22 15:47:00,30.2,22.3,22.21,North,0,4.0,5.0,72,0.01,,,0.01,meteohub,2013-02-22 21:47:00,
2013-02-22 15:52:00,30.2,22.3,22.20,West,270,3.0,5.0,72,0.01,,,0.01,meteohub,2013-02-22 21:52:00,
2013-02-22 15:57:00,30.0,22.5,22.20,NW,315,4.0,4.0,73,0.02,,,0.02,meteohub,2013-02-22 21:57:00,
2013-02-22 16:02:00,30.0,22.8,22.20,West,270,4.0,4.0,74,0.02,,,0.02,meteohub,2013-02-22 22:02:00,
2013-02-22 16:07:00,30.0,22.8,22.20,West,270,4.0,4.0,74,0.02,,,0.02,meteohub,2013-02-22 22:07:00,
2013-02-22 16:12:00,29.7,22.6,22.20,NW,315,3.0,4.0,75,0.02,,,0.02,meteohub,2013-02-22 22:12:00,
2013-02-22 16:17:00,29.7,23.0,22.19,NW,315,3.0,4.0,76,0.02,,,0.02,meteohub,2013-02-22 22:17:00,
2013-02-22 16:21:00,29.5,23.2,22.20,NW,315,3.0,5.0,77,0.02,,,0.02,meteohub,2013-02-22 22:21:00,
2013-02-22 16:26:00,29.3,23.0,22.20,NW,315,1.0,5.0,77,0.02,,,0.02,meteohub,2013-02-22 22:26:00,
2013-02-22 16:31:00,29.3,23.4,22.20,West,270,2.0,5.0,78,0.01,,,0.02,meteohub,2013-02-22 22:31:00,
2013-02-22 16:36:00,29.3,23.5,22.20,NW,315,2.0,3.0,79,0.01,,,0.02,meteohub,2013-02-22 22:36:00,
2013-02-22 16:41:00,29.8,24.1,22.21,North,0,2.0,3.0,79,0.01,,,0.02,meteohub,2013-02-22 22:41:00,
2013-02-22 16:47:00,30.4,24.6,22.21,NE,45,2.0,3.0,79,0.02,,,0.04,meteohub,2013-02-22 22:47:00,
2013-02-22 16:52:00,31.1,25.3,22.21,North,0,0.0,3.0,79,0.01,,,0.04,meteohub,2013-02-22 22:52:00,
2013-02-22 16:57:00,31.6,25.9,22.20,NE,45,0.0,3.0,79,0.01,,,0.04,meteohub,2013-02-22 22:57:00,
2013-02-22 17:02:00,31.3,25.5,22.21,NE,45,2.0,2.0,79,0.01,,,0.04,meteohub,2013-02-22 23:02:00,
2013-02-22 17:07:00,30.4,24.1,22.21,North,0,2.0,3.0,77,0.01,,,0.04,meteohub,2013-02-22 23:07:00,
2013-02-22 17:12:00,29.8,23.5,22.20,East,90,1.0,3.0,77,0.01,,,0.04,meteohub,2013-02-22 23:12:00,
2013-02-22 17:17:00,29.5,23.2,22.21,North,0,1.0,3.0,77,0.01,,,0.04,meteohub,2013-02-22 23:17:00,
2013-02-22 17:22:00,29.1,22.8,22.20,NW,315,0.0,2.0,77,0.01,,,0.04,meteohub,2013-02-22 23:22:00,
2013-02-22 17:27:00,28.8,22.5,22.20,NW,315,1.0,2.0,77,0.01,,,0.04,meteohub,2013-02-22 23:27:00,
2013-02-22 17:32:00,28.6,22.6,22.20,North,0,2.0,2.0,78,0.01,,,0.04,meteohub,2013-02-22 23:32:00,
2013-02-22 17:37:00,28.2,21.0,22.19,NW,315,1.0,3.0,74,0.01,,,0.04,meteohub,2013-02-22 23:37:00,
2013-02-22 17:42:00,28.0,21.2,22.19,NW,315,2.0,3.0,75,0.01,,,0.04,meteohub,2013-02-22 23:42:00,
2013-02-22 17:47:00,28.0,21.4,22.19,NW,315,2.0,3.0,76,0.00,,,0.04,meteohub,2013-02-22 23:47:00,
2013-02-22 17:52:00,27.9,21.2,22.19,NW,315,2.0,3.0,76,0.00,,,0.04,meteohub,2013-02-22 23:52:00,
2013-02-22 17:57:00,27.9,21.6,22.19,NW,315,2.0,2.0,77,0.00,,,0.04,meteohub,2013-02-22 23:57:00,
2013-02-22 18:02:00,27.7,21.4,22.19,NW,315,2.0,2.0,77,0.00,,,0.04,meteohub,2013-02-23 00:02:00,
2013-02-22 18:07:00,27.7,21.4,22.19,NW,315,2.0,2.0,77,0.00,,,0.00,meteohub,2013-02-23 00:07:00,
2013-02-22 18:12:00,27.7,21.7,22.19,NW,315,2.0,3.0,78,0.00,,,0.00,meteohub,2013-02-23 00:12:00,
2013-02-22 18:17:00,27.5,21.6,22.19,NW,315,2.0,3.0,78,0.00,,,0.00,meteohub,2013-02-23 00:17:00,
2013-02-22 18:22:00,27.5,21.6,22.18,NW,315,2.0,3.0,78,0.00,,,0.00,meteohub,2013-02-23 00:22:00,
2013-02-22 18:26:00,27.5,21.6,22.19,NW,315,2.0,3.0,78,0.00,,,0.00,meteohub,2013-02-23 00:26:00,
2013-02-22 18:32:00,27.5,21.6,22.18,West,270,2.0,3.0,78,0.00,,,0.00,meteohub,2013-02-23 00:32:00,
2013-02-22 18:37:00,27.3,21.4,22.18,NW,315,2.0,3.0,78,0.00,,,0.00,meteohub,2013-02-23 00:37:00,
2013-02-22 18:42:00,27.3,21.4,22.18,NW,315,2.0,3.0,78,0.00,,,0.00,meteohub,2013-02-23 00:42:00,
2013-02-22 18:47:00,27.3,21.4,22.18,NW,315,2.0,3.0,78,0.00,,,0.00,meteohub,2013-02-23 00:47:00,
2013-02-22 18:52:00,27.1,21.2,22.18,NW,315,1.0,3.0,78,0.00,,,0.00,meteohub,2013-02-23 00:52:00,
2013-02-22 18:57:00,27.1,21.2,22.18,NW,315,2.0,2.0,78,0.00,,,0.00,meteohub,2013-02-23 00:57:00,
2013-02-22 19:01:00,27.1,21.2,22.18,NW,315,2.0,3.0,78,0.00,,,0.00,meteohub,2013-02-23 01:01:00,
2013-02-22 19:07:00,27.1,21.2,22.18,NW,315,2.0,3.0,78,0.00,,,0.00,meteohub,2013-02-23 01:07:00,
2013-02-22 19:12:00,27.1,21.2,22.18,NE,45,2.0,4.0,78,0.00,,,0.00,meteohub,2013-02-23 01:12:00,
2013-02-22 19:16:00,27.0,21.0,22.18,NE,45,2.0,4.0,78,0.00,,,0.00,meteohub,2013-02-23 01:16:00,
2013-02-22 19:22:00,27.0,21.0,22.18,NW,315,2.0,4.0,78,0.00,,,0.00,meteohub,2013-02-23 01:22:00,
2013-02-22 19:27:00,27.0,21.0,22.18,NW,315,2.0,3.0,78,0.00,,,0.00,meteohub,2013-02-23 01:27:00,
2013-02-22 19:32:00,27.0,21.0,22.18,NW,315,2.0,4.0,78,0.00,,,0.00,meteohub,2013-02-23 01:32:00,
2013-02-22 19:37:00,27.0,21.0,22.18,North,0,2.0,4.0,78,0.00,,,0.00,meteohub,2013-02-23 01:37:00,
2013-02-22 19:42:00,27.0,21.0,22.18,North,0,2.0,4.0,78,0.00,,,0.00,meteohub,2013-02-23 01:42:00,
2013-02-22 19:47:00,27.0,21.0,22.18,NW,315,3.0,4.0,78,0.00,,,0.00,meteohub,2013-02-23 01:47:00,
2013-02-22 19:52:00,27.0,21.0,22.18,NW,315,3.0,4.0,78,0.00,,,0.00,meteohub,2013-02-23 01:52:00,
2013-02-22 19:57:00,27.0,21.0,22.18,North,0,4.0,4.0,78,0.00,,,0.00,meteohub,2013-02-23 01:57:00,
2013-02-22 20:02:00,27.0,21.0,22.18,NW,315,4.0,6.0,78,0.00,,,0.00,meteohub,2013-02-23 02:02:00,
2013-02-22 20:07:00,27.0,21.0,22.18,NW,315,4.0,6.0,78,0.00,,,0.00,meteohub,2013-02-23 02:07:00,
2013-02-22 20:12:00,26.8,20.8,22.18,North,0,4.0,6.0,78,0.00,,,0.00,meteohub,2013-02-23 02:12:00,
2013-02-22 20:17:00,27.0,21.0,22.18,North,0,4.0,4.0,78,0.00,,,0.00,meteohub,2013-02-23 02:17:00,
2013-02-22 20:22:00,27.0,21.0,22.18,North,0,3.0,5.0,78,0.00,,,0.00,meteohub,2013-02-23 02:22:00,
2013-02-22 20:27:00,26.8,20.8,22.18,North,0,4.0,5.0,78,0.00,,,0.00,meteohub,2013-02-23 02:27:00,
2013-02-22 20:32:00,26.8,20.8,22.18,North,0,2.0,5.0,78,0.00,,,0.00,meteohub,2013-02-23 02:32:00,
2013-02-22 20:37:00,26.8,20.8,22.18,NNW,338,3.0,5.0,78,0.00,,,0.00,meteohub,2013-02-23 02:37:00,
2013-02-22 20:42:00,26.8,20.8,22.18,NW,315,3.0,5.0,78,0.00,,,0.00,meteohub,2013-02-23 02:42:00,
2013-02-22 20:47:00,26.8,20.8,22.18,NW,315,2.0,4.0,78,0.00,,,0.00,meteohub,2013-02-23 02:47:00,
2013-02-22 20:52:00,26.8,20.8,22.18,NE,45,4.0,6.0,78,0.00,,,0.00,meteohub,2013-02-23 02:52:00,
2013-02-22 20:57:00,26.6,20.7,22.17,North,0,3.0,6.0,78,0.00,,,0.00,meteohub,2013-02-23 02:57:00,
2013-02-22 21:02:00,26.6,20.7,22.17,NW,315,5.0,6.0,78,0.00,,,0.00,meteohub,2013-02-23 03:02:00,
2013-02-22 21:07:00,26.8,20.8,22.17,North,0,6.0,6.0,78,0.00,,,0.00,meteohub,2013-02-23 03:07:00,
2013-02-22 21:12:00,26.8,20.8,22.17,North,0,3.0,6.0,78,0.00,,,0.00,meteohub,2013-02-23 03:12:00,
2013-02-22 21:17:00,26.8,20.8,22.17,NE,45,4.0,6.0,78,0.00,,,0.00,meteohub,2013-02-23 03:17:00,
2013-02-22 21:22:00,26.8,20.5,22.17,NW,315,3.0,6.0,77,0.00,,,0.00,meteohub,2013-02-23 03:22:00,
2013-02-22 21:27:00,26.8,20.5,22.17,NW,315,4.0,7.0,77,0.00,,,0.00,meteohub,2013-02-23 03:27:00,
2013-02-22 21:32:00,26.8,20.5,22.18,NW,315,8.0,8.0,77,0.00,,,0.00,meteohub,2013-02-23 03:32:00,
2013-02-22 21:37:00,26.8,20.3,22.18,NW,315,4.0,8.0,76,0.00,,,0.00,meteohub,2013-02-23 03:37:00,
2013-02-22 21:42:00,26.8,20.3,22.18,NW,315,4.0,8.0,76,0.00,,,0.00,meteohub,2013-02-23 03:42:00,
2013-02-22 21:47:00,26.8,20.3,22.18,North,0,8.0,8.0,76,0.00,,,0.00,meteohub,2013-02-23 03:47:00,
2013-02-22 21:52:00,26.8,20.3,22.18,NW,315,5.0,11.0,76,0.00,,,0.00,meteohub,2013-02-23 03:52:00,
2013-02-22 21:57:00,26.8,19.9,22.18,North,0,4.0,11.0,75,0.00,,,0.00,meteohub,2013-02-23 03:57:00,
2013-02-22 22:02:00,26.8,19.9,22.17,North,0,7.0,8.0,75,0.00,,,0.00,meteohub,2013-02-23 04:02:00,
2013-02-22 22:07:00,26.8,19.9,22.18,NW,315,5.0,8.0,75,0.00,,,0.00,meteohub,2013-02-23 04:07:00,
2013-02-22 22:12:00,26.8,19.9,22.17,North,0,4.0,8.0,75,0.00,,,0.00,meteohub,2013-02-23 04:12:00,
2013-02-22 22:17:00,26.8,19.9,22.17,North,0,8.0,8.0,75,0.00,,,0.00,meteohub,2013-02-23 04:17:00,
2013-02-22 22:22:00,26.8,19.9,22.17,NE,45,6.0,8.0,75,0.00,,,0.00,meteohub,2013-02-23 04:22:00,
2013-02-22 22:27:00,26.8,19.9,22.18,NW,315,4.0,8.0,75,0.00,,,0.00,meteohub,2013-02-23 04:27:00,
2013-02-22 22:32:00,26.6,19.8,22.18,NW,315,5.0,8.0,75,0.00,,,0.00,meteohub,2013-02-23 04:32:00,
2013-02-22 22:36:00,26.6,19.8,22.17,NW,315,5.0,7.0,75,0.00,,,0.00,meteohub,2013-02-23 04:36:00,
2013-02-22 22:42:00,26.6,19.8,22.18,NW,315,6.0,7.0,75,0.00,,,0.00,meteohub,2013-02-23 04:42:00,
2013-02-22 22:47:00,26.6,19.4,22.18,North,0,8.0,8.0,74,0.00,,,0.00,meteohub,2013-02-23 04:47:00,
2013-02-22 22:52:00,26.4,19.6,22.18,North,0,4.0,11.0,75,0.00,,,0.00,meteohub,2013-02-23 04:52:00,
2013-02-22 22:57:00,26.4,19.6,22.18,West,270,9.0,11.0,75,0.00,,,0.00,meteohub,2013-02-23 04:57:00,
2013-02-22 23:00:00,26.4,19.6,22.18,NW,315,4.0,11.0,75,0.00,,,0.00,meteohub,2013-02-23 05:00:00,
2013-02-22 23:02:00,26.4,19.6,22.18,North,0,4.0,11.0,75,0.00,,,0.00,meteohub,2013-02-23 05:02:00,
2013-02-22 23:07:00,26.2,19.4,22.18,North,0,5.0,10.0,75,0.00,,,0.00,meteohub,2013-02-23 05:07:00,
2013-02-22 23:12:00,26.2,19.0,22.18,North,0,5.0,9.0,74,0.00,,,0.00,meteohub,2013-02-23 05:12:00,
2013-02-22 23:17:00,26.1,18.9,22.18,NNE,23,8.0,11.0,74,0.00,,,0.00,meteohub,2013-02-23 05:17:00,
2013-02-22 23:22:00,26.1,18.9,22.18,NW,315,6.0,11.0,74,0.00,,,0.00,meteohub,2013-02-23 05:22:00,
2013-02-22 23:27:00,26.1,18.9,22.18,North,0,6.0,11.0,74,0.00,,,0.00,meteohub,2013-02-23 05:27:00,
2013-02-22 23:32:00,26.1,18.9,22.18,NW,315,5.0,9.0,74,0.00,,,0.00,meteohub,2013-02-23 05:32:00,
2013-02-22 23:36:00,26.1,18.9,22.18,North,0,4.0,9.0,74,0.00,,,0.00,meteohub,2013-02-23 05:36:00,
2013-02-22 23:41:00,25.9,18.7,22.18,North,0,5.0,9.0,74,0.00,,,0.00,meteohub,2013-02-23 05:41:00,
2013-02-22 23:46:00,25.9,18.7,22.19,NW,315,4.0,8.0,74,0.00,,,0.00,meteohub,2013-02-23 05:46:00,
2013-02-22 23:52:00,25.7,18.5,22.19,North,0,3.0,7.0,74,0.00,,,0.00,meteohub,2013-02-23 05:52:00,
2013-02-22 23:56:00,25.7,18.9,22.19,North,0,2.0,5.0,75,0.00,,,0.00,meteohub,2013-02-23 05:56:00,